Year,Month,Day,Hour,Minute,Value (Times are PST for temperature in C)
2020,01,31,00,00,6.70
2020,01,31,00,01,6.70
2020,01,31,00,02,6.70
2020,01,31,00,03,6.70
2020,01,31,00,04,6.70
2020,01,31,00,05,6.70
2020,01,31,00,06,6.70
2020,01,31,00,07,6.70
2020,01,31,00,08,6.70
2020,01,31,00,09,6.80
2020,01,31,00,10,6.80
2020,01,31,00,11,6.80
2020,01,31,00,12,6.80
2020,01,31,00,13,6.80
2020,01,31,00,14,6.80
2020,01,31,00,15,6.80
2020,01,31,00,16,6.80
2020,01,31,00,17,6.80
2020,01,31,00,18,6.80
2020,01,31,00,19,6.80
2020,01,31,00,20,6.80
2020,01,31,00,21,6.80
2020,01,31,00,22,6.80
2020,01,31,00,23,6.80
2020,01,31,00,24,6.80
2020,01,31,00,25,6.80
2020,01,31,00,26,6.80
2020,01,31,00,27,6.80
2020,01,31,00,28,6.80
2020,01,31,00,29,6.80
2020,01,31,00,30,6.80
2020,01,31,00,31,6.80
2020,01,31,00,32,6.80
2020,01,31,00,33,6.90
2020,01,31,00,34,6.90
2020,01,31,00,35,6.90
2020,01,31,00,36,6.90
2020,01,31,00,37,6.90
2020,01,31,00,38,6.90
2020,01,31,00,39,6.90
2020,01,31,00,40,7.00
2020,01,31,00,41,7.00
2020,01,31,00,42,7.00
2020,01,31,00,43,7.00
2020,01,31,00,44,7.00
2020,01,31,00,45,7.00
2020,01,31,00,46,7.00
2020,01,31,00,47,7.00
2020,01,31,00,48,7.00
2020,01,31,00,49,7.00
2020,01,31,00,50,7.00
2020,01,31,00,51,7.00
2020,01,31,00,52,7.00
2020,01,31,00,53,7.00
2020,01,31,00,54,7.00
2020,01,31,00,55,7.00
2020,01,31,00,56,7.00
2020,01,31,00,57,7.00
2020,01,31,00,58,7.00
2020,01,31,00,59,7.00
2020,01,31,01,00,7.00
2020,01,31,01,01,7.00
2020,01,31,01,02,7.00
2020,01,31,01,03,7.00
2020,01,31,01,04,7.00
2020,01,31,01,05,7.00
2020,01,31,01,06,7.00
2020,01,31,01,07,7.00
2020,01,31,01,08,7.10
2020,01,31,01,09,7.10
2020,01,31,01,10,7.10
2020,01,31,01,11,7.10
2020,01,31,01,12,7.10
2020,01,31,01,13,7.10
2020,01,31,01,14,7.10
2020,01,31,01,15,7.10
2020,01,31,01,16,7.10
2020,01,31,01,17,7.10
2020,01,31,01,18,7.20
2020,01,31,01,19,7.20
2020,01,31,01,20,7.20
2020,01,31,01,21,7.20
2020,01,31,01,22,7.20
2020,01,31,01,23,7.30
2020,01,31,01,24,7.30
2020,01,31,01,25,7.30
2020,01,31,01,26,7.30
2020,01,31,01,27,7.20
2020,01,31,01,28,7.30
2020,01,31,01,29,7.30
2020,01,31,01,30,7.30
2020,01,31,01,31,7.30
2020,01,31,01,32,7.30
2020,01,31,01,33,7.30
2020,01,31,01,34,7.30
2020,01,31,01,35,7.30
2020,01,31,01,36,7.30
2020,01,31,01,37,7.30
2020,01,31,01,38,7.30
2020,01,31,01,39,7.30
2020,01,31,01,40,7.30
2020,01,31,01,41,7.30
2020,01,31,01,42,7.30
2020,01,31,01,43,7.30
2020,01,31,01,44,7.30
2020,01,31,01,45,7.30
2020,01,31,01,46,7.30
2020,01,31,01,47,7.30
2020,01,31,01,48,7.30
2020,01,31,01,49,7.30
2020,01,31,01,50,7.30
2020,01,31,01,51,7.30
2020,01,31,01,52,7.30
2020,01,31,01,53,7.30
2020,01,31,01,54,7.30
2020,01,31,01,55,7.30
2020,01,31,01,56,7.30
2020,01,31,01,57,7.30
2020,01,31,01,58,7.40
2020,01,31,01,59,7.40
2020,01,31,02,00,7.40
2020,01,31,02,01,7.40
2020,01,31,02,02,7.40
2020,01,31,02,03,7.40
2020,01,31,02,04,7.40
2020,01,31,02,05,7.40
2020,01,31,02,06,7.40
2020,01,31,02,07,7.40
2020,01,31,02,08,7.40
2020,01,31,02,09,7.40
2020,01,31,02,10,7.40
2020,01,31,02,11,7.40
2020,01,31,02,12,7.40
2020,01,31,02,13,7.50
2020,01,31,02,14,7.50
2020,01,31,02,15,7.50
2020,01,31,02,16,7.50
2020,01,31,02,17,7.50
2020,01,31,02,18,7.50
2020,01,31,02,19,7.50
2020,01,31,02,20,7.50
2020,01,31,02,21,7.60
2020,01,31,02,22,7.60
2020,01,31,02,23,7.60
2020,01,31,02,24,7.60
2020,01,31,02,25,7.60
2020,01,31,02,26,7.60
2020,01,31,02,27,7.60
2020,01,31,02,28,7.60
2020,01,31,02,29,7.60
2020,01,31,02,30,7.60
2020,01,31,02,31,7.60
2020,01,31,02,32,7.60
2020,01,31,02,33,7.60
2020,01,31,02,34,7.60
2020,01,31,02,35,7.60
2020,01,31,02,36,7.60
2020,01,31,02,37,7.60
2020,01,31,02,38,7.60
2020,01,31,02,39,7.60
2020,01,31,02,40,7.60
2020,01,31,02,41,7.60
2020,01,31,02,42,7.60
2020,01,31,02,43,7.60
2020,01,31,02,44,7.60
2020,01,31,02,45,7.70
2020,01,31,02,46,7.70
2020,01,31,02,47,7.70
2020,01,31,02,48,7.70
2020,01,31,02,49,7.70
2020,01,31,02,50,7.70
2020,01,31,02,51,7.70
2020,01,31,02,52,7.70
2020,01,31,02,53,7.70
2020,01,31,02,54,7.70
2020,01,31,02,55,7.80
2020,01,31,02,56,7.70
2020,01,31,02,57,7.80
2020,01,31,02,58,7.80
2020,01,31,02,59,7.80
2020,01,31,03,00,7.80
2020,01,31,03,01,7.80
2020,01,31,03,02,7.80
2020,01,31,03,03,7.80
2020,01,31,03,04,7.80
2020,01,31,03,05,7.80
2020,01,31,03,06,7.80
2020,01,31,03,07,7.80
2020,01,31,03,08,7.80
2020,01,31,03,09,7.80
2020,01,31,03,10,7.80
2020,01,31,03,11,7.80
2020,01,31,03,12,7.80
2020,01,31,03,13,7.80
2020,01,31,03,14,7.80
2020,01,31,03,15,7.80
2020,01,31,03,16,7.80
2020,01,31,03,17,7.80
2020,01,31,03,18,7.80
2020,01,31,03,19,7.80
2020,01,31,03,20,7.80
2020,01,31,03,21,7.80
2020,01,31,03,22,7.80
2020,01,31,03,23,7.80
2020,01,31,03,24,7.80
2020,01,31,03,25,7.80
2020,01,31,03,26,7.80
2020,01,31,03,27,7.80
2020,01,31,03,28,7.80
2020,01,31,03,29,7.80
2020,01,31,03,30,7.80
2020,01,31,03,31,7.80
2020,01,31,03,32,7.80
2020,01,31,03,33,7.80
2020,01,31,03,34,7.80
2020,01,31,03,35,7.80
2020,01,31,03,36,7.80
2020,01,31,03,37,7.80
2020,01,31,03,38,7.80
2020,01,31,03,39,7.80
2020,01,31,03,40,7.80
2020,01,31,03,41,7.80
2020,01,31,03,42,7.80
2020,01,31,03,43,7.80
2020,01,31,03,44,7.80
2020,01,31,03,45,7.80
2020,01,31,03,46,7.80
2020,01,31,03,47,7.80
2020,01,31,03,48,7.80
2020,01,31,03,49,7.80
2020,01,31,03,50,7.80
2020,01,31,03,51,7.80
2020,01,31,03,52,7.80
2020,01,31,03,53,7.80
2020,01,31,03,54,7.80
2020,01,31,03,55,7.80
2020,01,31,03,56,7.80
2020,01,31,03,57,7.90
2020,01,31,03,58,7.90
2020,01,31,03,59,7.90
2020,01,31,04,00,7.90
2020,01,31,04,01,7.90
2020,01,31,04,02,7.90
2020,01,31,04,03,7.90
2020,01,31,04,04,7.90
2020,01,31,04,05,7.90
2020,01,31,04,06,7.90
2020,01,31,04,07,7.90
2020,01,31,04,08,7.90
2020,01,31,04,09,7.90
2020,01,31,04,10,7.90
2020,01,31,04,11,7.90
2020,01,31,04,12,7.90
2020,01,31,04,13,7.90
2020,01,31,04,14,7.80
2020,01,31,04,15,7.80
2020,01,31,04,16,7.80
2020,01,31,04,17,7.80
2020,01,31,04,18,7.80
2020,01,31,04,19,7.80
2020,01,31,04,20,7.80
2020,01,31,04,21,7.80
2020,01,31,04,22,7.80
2020,01,31,04,23,7.80
2020,01,31,04,24,7.80
2020,01,31,04,25,7.80
2020,01,31,04,26,7.80
2020,01,31,04,27,7.80
2020,01,31,04,28,7.80
2020,01,31,04,29,7.80
2020,01,31,04,30,7.80
2020,01,31,04,31,7.80
2020,01,31,04,32,7.80
2020,01,31,04,33,7.80
2020,01,31,04,34,7.80
2020,01,31,04,35,7.80
2020,01,31,04,36,7.80
2020,01,31,04,37,7.80
2020,01,31,04,38,7.80
2020,01,31,04,39,7.80
2020,01,31,04,40,7.80
2020,01,31,04,41,7.80
2020,01,31,04,42,7.80
2020,01,31,04,43,7.80
2020,01,31,04,44,7.80
2020,01,31,04,45,7.80
2020,01,31,04,46,7.80
2020,01,31,04,47,7.80
2020,01,31,04,48,7.80
2020,01,31,04,49,7.80
2020,01,31,04,50,7.90
2020,01,31,04,51,7.90
2020,01,31,04,52,7.90
2020,01,31,04,53,7.90
2020,01,31,04,54,7.90
2020,01,31,04,55,7.90
2020,01,31,04,56,8.00
2020,01,31,04,57,8.00
2020,01,31,04,58,8.00
2020,01,31,04,59,8.00
2020,01,31,05,00,8.00
2020,01,31,05,01,8.00
2020,01,31,05,02,8.00
2020,01,31,05,03,8.00
2020,01,31,05,04,8.00
2020,01,31,05,05,8.00
2020,01,31,05,06,8.00
2020,01,31,05,07,8.00
2020,01,31,05,08,8.00
2020,01,31,05,09,8.00
2020,01,31,05,10,8.00
2020,01,31,05,11,8.00
2020,01,31,05,12,8.00
2020,01,31,05,13,7.90
2020,01,31,05,14,7.90
2020,01,31,05,15,7.90
2020,01,31,05,16,7.90
2020,01,31,05,17,7.90
2020,01,31,05,18,7.80
2020,01,31,05,19,7.80
2020,01,31,05,20,7.80
2020,01,31,05,21,7.80
2020,01,31,05,22,7.80
2020,01,31,05,23,7.80
2020,01,31,05,24,7.80
2020,01,31,05,25,7.80
2020,01,31,05,26,7.80
2020,01,31,05,27,7.80
2020,01,31,05,28,7.80
2020,01,31,05,29,7.80
2020,01,31,05,30,7.80
2020,01,31,05,31,7.80
2020,01,31,05,32,7.80
2020,01,31,05,33,7.80
2020,01,31,05,34,7.70
2020,01,31,05,35,7.70
2020,01,31,05,36,7.70
2020,01,31,05,37,7.70
2020,01,31,05,38,7.70
2020,01,31,05,39,7.70
2020,01,31,05,40,7.70
2020,01,31,05,41,7.70
2020,01,31,05,42,7.60
2020,01,31,05,43,7.60
2020,01,31,05,44,7.60
2020,01,31,05,45,7.60
2020,01,31,05,46,7.60
2020,01,31,05,47,7.60
2020,01,31,05,48,7.60
2020,01,31,05,49,7.70
2020,01,31,05,50,7.70
2020,01,31,05,51,7.70
2020,01,31,05,52,7.70
2020,01,31,05,53,7.70
2020,01,31,05,54,7.70
2020,01,31,05,55,7.70
2020,01,31,05,56,7.70
2020,01,31,05,57,7.70
2020,01,31,05,58,7.70
2020,01,31,05,59,7.70
2020,01,31,06,00,7.70
2020,01,31,06,01,7.70
2020,01,31,06,02,7.70
2020,01,31,06,03,7.60
2020,01,31,06,04,7.60
2020,01,31,06,05,7.60
2020,01,31,06,06,7.60
2020,01,31,06,07,7.60
2020,01,31,06,08,7.60
2020,01,31,06,09,7.60
2020,01,31,06,10,7.60
2020,01,31,06,11,7.60
2020,01,31,06,12,7.60
2020,01,31,06,13,7.60
2020,01,31,06,14,7.60
2020,01,31,06,15,7.60
2020,01,31,06,16,7.60
2020,01,31,06,17,7.60
2020,01,31,06,18,7.60
2020,01,31,06,19,7.60
2020,01,31,06,20,7.60
2020,01,31,06,21,7.60
2020,01,31,06,22,7.60
2020,01,31,06,23,7.60
2020,01,31,06,24,7.60
2020,01,31,06,25,7.60
2020,01,31,06,26,7.70
2020,01,31,06,27,7.70
2020,01,31,06,28,7.70
2020,01,31,06,29,7.70
2020,01,31,06,30,7.70
2020,01,31,06,31,7.70
2020,01,31,06,32,7.70
2020,01,31,06,33,7.80
2020,01,31,06,34,7.80
2020,01,31,06,35,7.80
2020,01,31,06,36,7.80
2020,01,31,06,37,7.80
2020,01,31,06,38,7.80
2020,01,31,06,39,7.80
2020,01,31,06,40,7.80
2020,01,31,06,41,7.80
2020,01,31,06,42,7.80
2020,01,31,06,43,7.80
2020,01,31,06,44,7.80
2020,01,31,06,45,7.80
2020,01,31,06,46,7.80
2020,01,31,06,47,7.80
2020,01,31,06,48,7.80
2020,01,31,06,49,7.80
2020,01,31,06,50,7.80
2020,01,31,06,51,7.90
2020,01,31,06,52,7.90
2020,01,31,06,53,7.90
2020,01,31,06,54,7.90
2020,01,31,06,55,7.90
2020,01,31,06,56,7.90
2020,01,31,06,57,8.00
2020,01,31,06,58,8.00
2020,01,31,06,59,8.00
2020,01,31,07,00,8.00
2020,01,31,07,01,8.00
2020,01,31,07,02,8.00
2020,01,31,07,03,8.10
2020,01,31,07,04,8.10
2020,01,31,07,05,8.10
2020,01,31,07,06,8.10
2020,01,31,07,07,8.10
2020,01,31,07,08,8.10
2020,01,31,07,09,8.10
2020,01,31,07,10,8.10
2020,01,31,07,11,8.10
2020,01,31,07,12,8.10
2020,01,31,07,13,8.10
2020,01,31,07,14,8.10
2020,01,31,07,15,8.10
2020,01,31,07,16,8.10
2020,01,31,07,17,8.10
2020,01,31,07,18,8.10
2020,01,31,07,19,8.10
2020,01,31,07,20,8.20
2020,01,31,07,21,8.20
2020,01,31,07,22,8.20
2020,01,31,07,23,8.20
2020,01,31,07,24,8.20
2020,01,31,07,25,8.20
2020,01,31,07,26,8.20
2020,01,31,07,27,8.20
2020,01,31,07,28,8.10
2020,01,31,07,29,8.10
2020,01,31,07,30,8.10
2020,01,31,07,31,8.10
2020,01,31,07,32,8.10
2020,01,31,07,33,8.10
2020,01,31,07,34,8.10
2020,01,31,07,35,8.10
2020,01,31,07,36,8.10
2020,01,31,07,37,8.10
2020,01,31,07,38,8.10
2020,01,31,07,39,8.00
2020,01,31,07,40,8.00
2020,01,31,07,41,8.00
2020,01,31,07,42,8.00
2020,01,31,07,43,8.00
2020,01,31,07,44,8.00
2020,01,31,07,45,8.00
2020,01,31,07,46,8.00
2020,01,31,07,47,8.00
2020,01,31,07,48,8.00
2020,01,31,07,49,8.00
2020,01,31,07,50,8.00
2020,01,31,07,51,8.00
2020,01,31,07,52,8.00
2020,01,31,07,53,8.00
2020,01,31,07,54,8.00
2020,01,31,07,55,8.00
2020,01,31,07,56,8.00
2020,01,31,07,57,8.00
2020,01,31,07,58,8.00
2020,01,31,07,59,8.10
2020,01,31,08,00,8.10
2020,01,31,08,01,8.10
2020,01,31,08,02,8.10
2020,01,31,08,03,8.00
2020,01,31,08,04,8.00
2020,01,31,08,05,8.00
2020,01,31,08,06,8.00
2020,01,31,08,07,7.90
2020,01,31,08,08,7.90
2020,01,31,08,09,7.90
2020,01,31,08,10,7.90
2020,01,31,08,11,7.90
2020,01,31,08,12,7.90
2020,01,31,08,13,7.90
2020,01,31,08,14,7.90
2020,01,31,08,15,7.90
2020,01,31,08,16,7.90
2020,01,31,08,17,7.90
2020,01,31,08,18,7.90
2020,01,31,08,19,7.90
2020,01,31,08,20,7.80
2020,01,31,08,21,7.80
2020,01,31,08,22,7.80
2020,01,31,08,23,7.80
2020,01,31,08,24,7.80
2020,01,31,08,25,7.80
2020,01,31,08,26,7.80
2020,01,31,08,27,7.80
2020,01,31,08,28,7.80
2020,01,31,08,29,7.80
2020,01,31,08,30,7.80
2020,01,31,08,31,7.80
2020,01,31,08,32,7.80
2020,01,31,08,33,7.80
2020,01,31,08,34,7.80
2020,01,31,08,35,7.80
2020,01,31,08,36,7.80
2020,01,31,08,37,7.80
2020,01,31,08,38,7.80
2020,01,31,08,39,7.80
2020,01,31,08,40,7.80
2020,01,31,08,41,7.80
2020,01,31,08,42,7.80
2020,01,31,08,43,7.80
2020,01,31,08,44,7.80
2020,01,31,08,45,7.80
2020,01,31,08,46,7.80
2020,01,31,08,47,7.80
2020,01,31,08,48,7.80
2020,01,31,08,49,7.80
2020,01,31,08,50,7.80
2020,01,31,08,51,7.80
2020,01,31,08,52,7.80
2020,01,31,08,53,7.90
2020,01,31,08,54,7.90
2020,01,31,08,55,7.90
2020,01,31,08,56,7.90
2020,01,31,08,57,7.90
2020,01,31,08,58,8.00
2020,01,31,08,59,8.00
2020,01,31,09,00,8.00
2020,01,31,09,01,8.00
2020,01,31,09,02,8.10
2020,01,31,09,03,8.10
2020,01,31,09,04,8.10
2020,01,31,09,05,8.20
2020,01,31,09,06,8.20
2020,01,31,09,07,8.20
2020,01,31,09,08,8.20
2020,01,31,09,09,8.20
2020,01,31,09,10,8.20
2020,01,31,09,11,8.10
2020,01,31,09,12,8.20
2020,01,31,09,13,8.20
2020,01,31,09,14,8.20
2020,01,31,09,15,8.20
2020,01,31,09,16,8.20
2020,01,31,09,17,8.30
2020,01,31,09,18,8.30
2020,01,31,09,19,8.30
2020,01,31,09,20,8.30
2020,01,31,09,21,8.30
2020,01,31,09,22,8.30
2020,01,31,09,23,8.30
2020,01,31,09,24,8.30
2020,01,31,09,25,8.30
2020,01,31,09,26,8.20
2020,01,31,09,27,8.20
2020,01,31,09,28,8.20
2020,01,31,09,29,8.20
2020,01,31,09,30,8.20
2020,01,31,09,31,8.20
2020,01,31,09,32,8.20
2020,01,31,09,33,8.20
2020,01,31,09,34,8.10
2020,01,31,09,35,8.10
2020,01,31,09,36,8.10
2020,01,31,09,37,8.10
2020,01,31,09,38,8.10
2020,01,31,09,39,8.10
2020,01,31,09,40,8.10
2020,01,31,09,41,8.10
2020,01,31,09,42,8.10
2020,01,31,09,43,8.10
2020,01,31,09,44,8.10
2020,01,31,09,45,8.10
2020,01,31,09,46,8.20
2020,01,31,09,47,8.20
2020,01,31,09,48,8.20
2020,01,31,09,49,8.20
2020,01,31,09,50,8.20
2020,01,31,09,51,8.20
2020,01,31,09,52,8.20
2020,01,31,09,53,8.20
2020,01,31,09,54,8.20
2020,01,31,09,55,8.20
2020,01,31,09,56,8.20
2020,01,31,09,57,8.20
2020,01,31,09,58,8.20
2020,01,31,09,59,8.30
2020,01,31,10,00,8.30
2020,01,31,10,01,8.30
2020,01,31,10,02,8.30
2020,01,31,10,03,8.30
2020,01,31,10,04,8.30
2020,01,31,10,05,8.30
2020,01,31,10,06,8.30
2020,01,31,10,07,8.30
2020,01,31,10,08,8.30
2020,01,31,10,09,8.30
2020,01,31,10,10,8.30
2020,01,31,10,11,8.30
2020,01,31,10,12,8.30
2020,01,31,10,13,8.30
2020,01,31,10,14,8.30
2020,01,31,10,15,8.40
2020,01,31,10,16,8.40
2020,01,31,10,17,8.40
2020,01,31,10,18,8.40
2020,01,31,10,19,8.40
2020,01,31,10,20,8.40
2020,01,31,10,21,8.40
2020,01,31,10,22,8.50
2020,01,31,10,23,8.50
2020,01,31,10,24,8.50
2020,01,31,10,25,8.50
2020,01,31,10,26,8.50
2020,01,31,10,27,8.50
2020,01,31,10,28,8.50
2020,01,31,10,29,8.50
2020,01,31,10,30,8.50
2020,01,31,10,31,8.50
2020,01,31,10,32,8.60
2020,01,31,10,33,8.60
2020,01,31,10,34,8.60
2020,01,31,10,35,8.60
2020,01,31,10,36,8.60
2020,01,31,10,37,8.60
2020,01,31,10,38,8.60
2020,01,31,10,39,8.70
2020,01,31,10,40,8.70
2020,01,31,10,41,8.70
2020,01,31,10,42,8.70
2020,01,31,10,43,8.70
2020,01,31,10,44,8.70
2020,01,31,10,45,8.70
2020,01,31,10,46,8.70
2020,01,31,10,47,8.70
2020,01,31,10,48,8.70
2020,01,31,10,49,8.70
2020,01,31,10,50,8.70
2020,01,31,10,51,8.70
2020,01,31,10,52,8.70
2020,01,31,10,53,8.70
2020,01,31,10,54,8.70
2020,01,31,10,55,8.70
2020,01,31,10,56,8.70
2020,01,31,10,57,8.70
2020,01,31,10,58,8.70
2020,01,31,10,59,8.70
2020,01,31,11,00,8.70
2020,01,31,11,01,8.70
2020,01,31,11,02,8.70
2020,01,31,11,03,8.70
2020,01,31,11,04,8.70
2020,01,31,11,05,8.70
2020,01,31,11,06,8.70
2020,01,31,11,07,8.70
2020,01,31,11,08,8.70
2020,01,31,11,09,8.70
2020,01,31,11,10,8.70
2020,01,31,11,11,8.70
2020,01,31,11,12,8.70
2020,01,31,11,13,8.70
2020,01,31,11,14,8.70
2020,01,31,11,15,8.80
2020,01,31,11,16,8.80
2020,01,31,11,17,8.80
2020,01,31,11,18,8.90
2020,01,31,11,19,8.90
2020,01,31,11,20,8.90
2020,01,31,11,21,8.90
2020,01,31,11,22,8.90
2020,01,31,11,23,9.10
2020,01,31,11,24,9.20
2020,01,31,11,25,9.20
2020,01,31,11,26,9.30
2020,01,31,11,27,9.30
2020,01,31,11,28,9.30
2020,01,31,11,29,9.40
2020,01,31,11,30,9.50
2020,01,31,11,31,9.50
2020,01,31,11,32,9.50
2020,01,31,11,33,9.50
2020,01,31,11,34,9.60
2020,01,31,11,35,9.70
2020,01,31,11,36,9.80
2020,01,31,11,37,10.00
2020,01,31,11,38,10.20
2020,01,31,11,39,10.40
2020,01,31,11,40,10.50
2020,01,31,11,41,10.60
2020,01,31,11,42,10.70
2020,01,31,11,43,10.80
2020,01,31,11,44,10.80
2020,01,31,11,45,10.90
2020,01,31,11,46,11.00
2020,01,31,11,47,11.10
2020,01,31,11,48,11.20
2020,01,31,11,49,11.20
2020,01,31,11,50,11.30
2020,01,31,11,51,11.40
2020,01,31,11,52,11.40
2020,01,31,11,53,11.40
2020,01,31,11,54,11.40
2020,01,31,11,55,11.50
2020,01,31,11,56,11.60
2020,01,31,11,57,11.60
2020,01,31,11,58,11.60
2020,01,31,11,59,11.70
2020,01,31,12,00,11.70
2020,01,31,12,01,11.70
2020,01,31,12,02,11.80
2020,01,31,12,03,11.80
2020,01,31,12,04,11.80
2020,01,31,12,05,11.80
2020,01,31,12,06,11.80
2020,01,31,12,07,11.80
2020,01,31,12,08,11.90
2020,01,31,12,09,12.00
2020,01,31,12,10,12.00
2020,01,31,12,11,12.10
2020,01,31,12,12,12.10
2020,01,31,12,13,12.20
2020,01,31,12,14,12.20
2020,01,31,12,15,12.20
2020,01,31,12,16,12.20
2020,01,31,12,17,12.20
2020,01,31,12,18,12.20
2020,01,31,12,19,12.30
2020,01,31,12,20,12.30
2020,01,31,12,21,12.30
2020,01,31,12,22,12.30
2020,01,31,12,23,12.30
2020,01,31,12,24,12.30
2020,01,31,12,25,12.30
2020,01,31,12,26,12.40
2020,01,31,12,27,12.40
2020,01,31,12,28,12.40
2020,01,31,12,29,12.40
2020,01,31,12,30,12.40
2020,01,31,12,31,12.40
2020,01,31,12,32,12.40
2020,01,31,12,33,12.40
2020,01,31,12,34,12.40
2020,01,31,12,35,12.40
2020,01,31,12,36,12.40
2020,01,31,12,37,12.40
2020,01,31,12,38,12.40
2020,01,31,12,39,12.40
2020,01,31,12,40,12.50
2020,01,31,12,41,12.50
2020,01,31,12,42,12.50
2020,01,31,12,43,12.50
2020,01,31,12,44,12.50
2020,01,31,12,45,12.50
2020,01,31,12,46,12.50
2020,01,31,12,47,12.60
2020,01,31,12,48,12.60
2020,01,31,12,49,12.60
2020,01,31,12,50,12.60
2020,01,31,12,51,12.70
2020,01,31,12,52,12.70
2020,01,31,12,53,12.70
2020,01,31,13,02,12.80
2020,01,31,13,03,12.80
2020,01,31,13,04,12.80
2020,01,31,13,05,12.80
2020,01,31,13,06,12.80
2020,01,31,13,07,12.80
2020,01,31,13,08,12.80
2020,01,31,13,09,12.80
2020,01,31,13,10,12.80
2020,01,31,13,11,12.80
2020,01,31,13,12,12.80
2020,01,31,13,13,12.80
2020,01,31,13,14,12.80
2020,01,31,13,15,12.80
2020,01,31,15,04,12.20
2020,01,31,15,05,12.20
2020,01,31,15,06,12.20
2020,01,31,15,07,12.20
2020,01,31,15,08,12.20
2020,01,31,15,09,12.20
2020,01,31,15,10,12.20
2020,01,31,15,11,12.20
2020,01,31,15,12,12.20
2020,01,31,15,13,12.20
2020,01,31,15,14,12.20
2020,01,31,15,15,12.20
2020,01,31,15,16,12.20
2020,01,31,15,17,12.30
2020,01,31,15,18,12.30
2020,01,31,15,19,12.30
2020,01,31,15,20,12.30
2020,01,31,15,21,12.30
2020,01,31,15,22,12.30
2020,01,31,15,23,12.30
2020,01,31,15,24,12.30
2020,01,31,15,25,12.30
2020,01,31,15,26,12.30
2020,01,31,15,27,12.30
2020,01,31,15,28,12.30
2020,01,31,15,29,12.30
2020,01,31,15,30,12.30
2020,01,31,15,31,12.30
2020,01,31,15,32,12.30
2020,01,31,15,33,12.30
2020,01,31,15,34,12.30
2020,01,31,15,35,12.30
2020,01,31,15,36,12.30
2020,01,31,15,37,12.30
2020,01,31,15,38,12.30
2020,01,31,15,39,12.30
2020,01,31,15,40,12.40
2020,01,31,15,41,12.40
2020,01,31,15,42,12.40
2020,01,31,15,43,12.40
2020,01,31,15,44,12.40
2020,01,31,15,45,12.40
2020,01,31,15,46,12.50
2020,01,31,15,47,12.50
2020,01,31,15,48,12.50
2020,01,31,15,49,12.50
2020,01,31,15,50,12.40
2020,01,31,15,51,12.40
2020,01,31,15,52,12.40
2020,01,31,15,53,12.40
2020,01,31,15,54,12.30
2020,01,31,15,55,12.30
2020,01,31,15,56,12.30
2020,01,31,15,57,12.30
2020,01,31,15,58,12.30
2020,01,31,15,59,12.30
2020,01,31,16,00,12.30
2020,01,31,16,01,12.30
2020,01,31,16,02,12.30
2020,01,31,16,03,12.30
2020,01,31,16,04,12.30
2020,01,31,16,05,12.30
2020,01,31,16,06,12.30
2020,01,31,16,07,12.30
2020,01,31,16,08,12.30
2020,01,31,16,09,12.30
2020,01,31,16,10,12.30
2020,01,31,16,11,12.30
2020,01,31,16,12,12.30
2020,01,31,16,13,12.30
2020,01,31,16,14,12.30
2020,01,31,16,15,12.30
2020,01,31,16,16,12.30
2020,01,31,16,17,12.30
2020,01,31,16,18,12.30
2020,01,31,16,19,12.30
2020,01,31,16,20,12.30
2020,01,31,16,21,12.30
2020,01,31,16,22,12.30
2020,01,31,16,23,12.20
2020,01,31,16,24,12.20
2020,01,31,16,25,12.20
2020,01,31,16,26,12.20
2020,01,31,16,27,12.20
2020,01,31,16,28,12.20
2020,01,31,16,29,12.20
2020,01,31,16,30,12.20
2020,01,31,16,31,12.20
2020,01,31,16,32,12.20
2020,01,31,16,33,12.10
2020,01,31,16,34,12.10
2020,01,31,16,35,12.10
2020,01,31,16,36,12.10
2020,01,31,16,37,12.10
2020,01,31,16,38,12.10
2020,01,31,16,39,12.10
2020,01,31,16,40,12.10
2020,01,31,16,41,12.10
2020,01,31,16,42,12.10
2020,01,31,16,43,12.10
2020,01,31,16,44,12.00
2020,01,31,16,45,12.00
2020,01,31,16,46,12.00
2020,01,31,16,47,12.00
2020,01,31,16,48,12.00
2020,01,31,16,49,11.90
2020,01,31,16,50,11.90
2020,01,31,16,51,11.90
2020,01,31,16,52,11.80
2020,01,31,16,53,11.80
2020,01,31,16,54,11.80
2020,01,31,16,55,11.80
2020,01,31,16,56,11.80
2020,01,31,16,57,11.80
2020,01,31,16,58,11.90
2020,01,31,16,59,11.80
2020,01,31,17,00,11.80
2020,01,31,17,01,11.80
2020,01,31,17,02,11.80
2020,01,31,17,03,11.80
2020,01,31,17,04,11.80
2020,01,31,17,05,11.80
2020,01,31,17,06,11.80
2020,01,31,17,07,11.80
2020,01,31,17,08,11.80
2020,01,31,17,09,11.90
2020,01,31,17,10,11.90
2020,01,31,17,11,11.90
2020,01,31,17,12,11.90
2020,01,31,17,13,11.90
2020,01,31,17,14,11.90
2020,01,31,17,15,11.90
2020,01,31,17,16,11.90
2020,01,31,17,17,12.00
2020,01,31,17,18,12.00
2020,01,31,17,19,12.00
2020,01,31,17,20,12.00
2020,01,31,17,21,12.00
2020,01,31,17,22,12.00
2020,01,31,17,23,12.00
2020,01,31,17,24,12.00
2020,01,31,17,25,12.00
2020,01,31,17,26,12.00
2020,01,31,17,27,12.00
2020,01,31,17,28,12.00
2020,01,31,17,29,12.00
2020,01,31,17,30,12.00
2020,01,31,17,31,11.90
2020,01,31,17,32,11.90
2020,01,31,17,33,11.90
2020,01,31,17,34,12.00
2020,01,31,17,35,12.00
2020,01,31,17,36,12.10
2020,01,31,17,37,12.10
2020,01,31,17,38,12.20
2020,01,31,17,39,12.20
2020,01,31,17,40,12.30
2020,01,31,17,41,12.30
2020,01,31,17,42,12.40
2020,01,31,17,43,12.50
2020,01,31,17,44,12.50
2020,01,31,17,45,12.50
2020,01,31,17,46,12.50
2020,01,31,17,47,12.40
2020,01,31,17,48,12.40
2020,01,31,17,49,12.40
2020,01,31,17,50,12.40
2020,01,31,17,51,12.40
2020,01,31,17,52,12.40
2020,01,31,17,53,12.40
2020,01,31,17,54,12.30
2020,01,31,17,55,12.30
2020,01,31,17,56,12.30
2020,01,31,17,57,12.30
2020,01,31,17,58,12.30
2020,01,31,17,59,12.30
2020,01,31,18,00,12.30
2020,01,31,18,01,12.30
2020,01,31,18,02,12.20
2020,01,31,18,03,12.20
2020,01,31,18,04,12.20
2020,01,31,18,05,12.10
2020,01,31,18,06,12.10
2020,01,31,18,07,12.10
2020,01,31,18,08,12.00
2020,01,31,18,09,12.00
2020,01,31,18,10,12.00
2020,01,31,18,11,12.00
2020,01,31,18,12,12.00
2020,01,31,18,13,12.00
2020,01,31,18,14,12.00
2020,01,31,18,15,12.00
2020,01,31,18,16,12.00
2020,01,31,18,17,12.00
2020,01,31,18,18,12.00
2020,01,31,18,19,12.00
2020,01,31,18,20,12.00
2020,01,31,18,21,12.00
2020,01,31,18,22,12.00
2020,01,31,18,23,12.00
2020,01,31,18,24,12.00
2020,01,31,18,25,12.00
2020,01,31,18,26,12.00
2020,01,31,18,27,11.90
2020,01,31,18,28,11.90
2020,01,31,18,29,11.90
2020,01,31,18,30,11.90
2020,01,31,18,31,12.00
2020,01,31,18,32,12.00
2020,01,31,18,33,12.00
2020,01,31,18,34,12.00
2020,01,31,18,35,12.00
2020,01,31,18,36,12.00
2020,01,31,18,37,11.90
2020,01,31,18,38,11.90
2020,01,31,18,39,11.90
2020,01,31,18,40,11.90
2020,01,31,18,41,11.80
2020,01,31,18,42,11.80
2020,01,31,18,43,11.80
2020,01,31,18,44,11.80
2020,01,31,18,45,11.80
2020,01,31,18,46,11.80
2020,01,31,18,47,11.80
2020,01,31,18,48,11.80
2020,01,31,18,49,11.70
2020,01,31,18,50,11.70
2020,01,31,18,51,11.70
2020,01,31,18,52,11.70
2020,01,31,18,53,11.60
2020,01,31,18,54,11.60
2020,01,31,18,55,11.60
2020,01,31,18,56,11.60
2020,01,31,18,57,11.60
2020,01,31,18,58,11.60
2020,01,31,18,59,11.60
2020,01,31,19,00,11.60
2020,01,31,19,01,11.60
2020,01,31,19,02,11.60
2020,01,31,19,03,11.60
2020,01,31,19,04,11.50
2020,01,31,19,05,11.50
2020,01,31,19,06,11.50
2020,01,31,19,07,11.50
2020,01,31,19,08,11.40
2020,01,31,19,09,11.40
2020,01,31,19,10,11.40
2020,01,31,19,11,11.40
2020,01,31,19,12,11.40
2020,01,31,19,13,11.40
2020,01,31,19,14,11.40
2020,01,31,19,15,11.40
2020,01,31,19,16,11.40
2020,01,31,19,17,11.40
2020,01,31,19,18,11.40
2020,01,31,19,19,11.40
2020,01,31,19,20,11.40
2020,01,31,19,21,11.40
2020,01,31,19,22,11.40
2020,01,31,19,23,11.40
2020,01,31,19,24,11.40
2020,01,31,19,25,11.30
2020,01,31,19,26,11.30
2020,01,31,19,27,11.30
2020,01,31,19,28,11.30
2020,01,31,19,29,11.30
2020,01,31,19,30,11.30
2020,01,31,19,31,11.20
2020,01,31,19,32,11.20
2020,01,31,19,33,11.20
2020,01,31,19,34,11.20
2020,01,31,19,35,11.20
2020,01,31,19,36,11.20
2020,01,31,19,37,11.20
2020,01,31,19,38,11.10
2020,01,31,19,39,11.10
2020,01,31,19,40,11.10
2020,01,31,19,41,11.10
2020,01,31,19,42,11.10
2020,01,31,19,43,11.10
2020,01,31,19,44,11.10
2020,01,31,19,45,11.10